{"data":{"norad_id":47656,"intl_designator":"2021-012AN","name":"STARLINK-2040","alt_names":[],"object_type":"PAYLOAD","status":"ACTIVE","operator":null,"country":"US","launch_date":"2021-02-16","launch_site_code":"AFETR","launch_vehicle":null,"mission":null,"orbit_class":"UNKNOWN","rcs_meters":null,"size_class":null,"mass_kg":null,"dimensions":null,"purposes":["comms"],"wikipedia_slug":null,"has_3d_model":false,"image_url":null,"decayed_at":null,"tle_current":{"epoch":"2026-09-19T15:20:56.571360Z","epoch_age_seconds":100026,"freshness":"FRESH","line1":"1 47656U 21012AN  26262.63954365  .00000271  00000+0  20492-4 0  9993","line2":"2 47656  53.1586 226.9165 0001291  89.4311 270.6838 15.31695269310014","mean_motion":15.31695269,"eccentricity":0.0001291,"inclination_deg":53.1586,"raan_deg":226.9165,"arg_perigee_deg":89.4311,"mean_anomaly_deg":270.6838,"bstar":2.0492e-5,"rev_number":31001,"period_min":94.013478342865,"perigee_km":469.869906286,"apogee_km":471.63828996754,"semimajor_km":6848.8910981268,"source":"CELESTRAK","updated_at":"2026-09-20T09:00:38.599009Z"}}}